Location: The Saddle
(36.8333°N, 80.3417°W)
Time: 16:02:02
(UTC-05:00)

A-11 Canister half - Pass Details

Date: 17 December 2023
Orbit: 1526 x 1682 km, 47.3° (Epoch: 01 March)

Event Time Altitude Azimuth Distance (km) Brightness Sun altitude
Rises 16:39:24 0° 250° (WSW) 4,872 13.7 3.9°
Reaches altitude 10° 16:42:34 10° 254° (WSW) 3,902 12.9 3.3°
Maximum altitude 16:52:34 66° 335° (NNW) 1,810 9.5 1.6°
Drops below altitude 10° 17:02:41 10° 57° (ENE) 3,943 10.5 -0.1°
Enters shadow 17:05:39 - 61° (ENE) 4,845 10.9 -0.6°
Sets 17:05:54 0° 61° (ENE) 4,925 - -0.7°
